SAUDISAT 3

Satellite information

Favourite Embed

Satellite Type and Status

PAYLOADIN ORBIT

Key statistics

Satellite SAUDISAT 3 at a glance.

Uptime

6596

Days in orbit

Revolutions

≈ 14.7

Per day

Orbit

SSO

Sun Synchronous Orbit

Inclination

98.1

Latest

Satellite identification and parameters

Extended collection of information and parameters for SAUDISAT 3.

Object identification

Identified? True

Debris? False

Object name: SAUDISAT 3

International designator: 2007-012B

Object number (NORAD): 31118

Object ID (CCSDS): 31118

Country: SAUDI ARABIA (SAUD)

Current information (Y/N): Y

RCS size: MEDIUM

Orbital parameters

Period: 97.891 minutes

Inclination: 98.0969 deg

SMA: 7035.954 km

Apoapsis: 669.178 km

Periapsis: 646.46 km

RAAN: 74.4289 deg

Eccentricy: 0.0016144

Argument of periapsis: 78.2555 deg

Mean anomaly: 282.0462 deg

Mean motion: 14.71018949 rev/day

Mean motion (dot): 0.00000489 rev/day2

B* drag term: 0.00008779 1/REarth

Two-line elements (TLE)

Creation date: May 8, 2025, 3:01 a.m.

Reference frame: TEME

Reference center: EARTH

Epoch: May 7, 2025, 8:13 p.m. UTC

TLE line 0: 0 SAUDISAT 3

TLE line 1: 1 31118U 07012B 25127.84285245 .00000489 00000-0 87790-4 0 9995

TLE line 2: 2 31118 98.0969 74.4289 0016144 78.2555 282.0462 14.71018949968156

Live tracking on map

Real-time ground track for satellite SAUDISAT 3.

In-orbit conjunctions

There are no conjunctions computed for SAUDISAT 3, at the moment. Check back to stay up to date, as we update our databases every day.

Go to all conjunctions

Associated space launch

Rideshare mission with Egyptian and Saudi Arabian Earth observation satellites as well as 14 American cubesats

SAUDISAT 3 was lifted into orbit during the mission ‘Dnepr | EgyptSat 1 & Saudisat 3’, on board a Dnepr space rocket.

The launch took place on April 17, 2007, 6:46 a.m. from 109/95.

For more information about the launch, click the button.

Launch to space Dnepr | EgyptSat 1 & Saudisat 3
Dnepr | EgyptSat 1 & Saudisat 3

Agency: N/A

Status: Launch Successful

Launch date: April 17, 2007, 6:46 a.m. UTC

Rocket: Dnepr

Launch pad: 109/95

Location: Baikonur Cosmodrome, Republic of Kazakhstan

...

Latest news about this satellite

There are no fresh news available about this satellite. Check back as we update our databases every day.


Newsletter sign-up

Weekly statistics, charts and insights to help you stay on top of the space industry.